GW5972 Weather Reports


time (UTC)temp
C
wind
direction
speed
KPH
gust
KPH
rain 1hr
cm
rain 24hr
cm
rain mn
cm
humidity
%
barometer
mb
20260508122840 17 34 1.6 1.6 0.00 0.00 0.00 50 1010.0
20260508122336 17 218 1.6 3.2 0.00 0.00 0.00 49 1010.0
20260508121838 17 180 0.0 1.6 0.00 0.00 0.00 55 1010.0
20260508121336 16 210 0.0 1.6 0.00 0.00 0.00 57 1010.0
20260508120839 16 167 1.6 3.2 0.00 0.00 0.00 58 1010.0
20260508120339 15 203 0.0 1.6 0.00 0.00 0.00 61 1010.0
20260508115836 15 204 0.0 1.6 0.00 0.00 0.00 63 1010.0
20260508115336 15 206 0.0 0.0 0.00 0.00 0.00 64 1010.0
20260508114838 14 209 0.0 0.0 0.00 0.00 0.00 65 1010.0
20260508114337 14 209 0.0 1.6 0.00 0.00 0.00 63 1010.0
20260508113837 15 202 0.0 0.0 0.00 0.00 0.00 64 1010.0
20260508113337 15 201 0.0 0.0 0.00 0.00 0.00 65 1010.0
20260508112837 15 201 1.6 3.2 0.00 0.00 0.00 63 1010.0
20260508112337 15 182 0.0 0.0 0.00 0.00 0.00 64 1010.0
20260508111838 15 225 0.0 0.0 0.00 0.00 0.00 64 1010.0
20260508111337 15 225 0.0 1.6 0.00 0.00 0.00 65 1010.0
20260508110836 14 219 0.0 0.0 0.00 0.00 0.00 66 1010.0
20260508110336 14 219 0.0 0.0 0.00 0.00 0.00 64 1010.0
20260508105837 14 177 0.0 0.0 0.00 0.00 0.00 62 1010.0
20260508105337 15 178 0.0 0.0 0.00 0.00 0.00 61 1010.0
20260508104837 15 177 0.0 1.6 0.00 0.00 0.00 57 1010.0
20260508104337 15 171 0.0 0.0 0.00 0.00 0.00 60 1010.0
20260508103836 15 174 0.0 0.0 0.00 0.00 0.00 60 1010.0
20260508103339 15 174 0.0 1.6 0.00 0.00 0.00 64 1010.0
20260508102838 15 161 0.0 0.0 0.00 0.00 0.00 64 1010.0
20260508102342 15 168 0.0 0.0 0.00 0.00 0.00 67 1010.0
20260508101836 15 168 0.0 1.6 0.00 0.00 0.00 68 1010.0
20260508101337 14 169 0.0 0.0 0.00 0.00 0.00 71 1010.0
20260508100836 14 166 0.0 1.6 0.00 0.00 0.00 71 1010.0
20260508100337 13 173 0.0 1.6 0.00 0.00 0.00 66 1010.0
20260508095836 13 173 0.0 1.6 0.00 0.00 0.00 65 1010.0
20260508095336 13 173 0.0 0.0 0.00 0.00 0.00 67 1010.0
20260508094836 13 173 0.0 0.0 0.00 0.00 0.00 69 1010.0
20260508094340 13 173 0.0 0.0 0.00 0.00 0.00 72 1010.0
20260508093836 12 169 0.0 0.0 0.00 0.00 0.00 74 1010.0
20260508093336 12 169 0.0 0.0 0.00 0.00 0.00 75 1010.0
20260508092837 12 188 0.0 0.0 0.00 0.00 0.00 76 1010.0
20260508092336 12 188 0.0 0.0 0.00 0.00 0.00 76 1010.0
20260508091837 12 187 0.0 0.0 0.00 0.00 0.00 75 1010.0
20260508091336 12 187 0.0 1.6 0.00 0.00 0.00 74 1010.0
20260508090837 12 185 0.0 0.0 0.00 0.00 0.00 75 1010.0
20260508090337 12 185 0.0 0.0 0.00 0.00 0.00 74 1010.0
20260508085837 12 168 0.0 0.0 0.00 0.00 0.00 74 1010.0
20260508085336 12 168 0.0 1.6 0.00 0.00 0.00 73 1010.0
20260508084836 12 169 0.0 0.0 0.00 0.00 0.00 74 1010.0
20260508084336 12 169 0.0 0.0 0.00 0.00 0.00 75 1010.0
20260508083836 12 169 0.0 0.0 0.00 0.00 0.00 75 1010.0
20260508083337 11 169 0.0 1.6 0.00 0.00 0.00 74 1010.0
20260508082837 11 161 0.0 0.0 0.00 0.00 0.00 75 1010.0
20260508082336 11 161 0.0 0.0 0.00 0.00 0.00 75 1010.0
20260508081837 11 161 0.0 0.0 0.00 0.00 0.00 76 1010.0
20260508081336 11 161 0.0 0.0 0.00 0.00 0.00 76 1010.0
20260508080836 11 161 0.0 0.0 0.00 0.00 0.00 76 1010.0
20260508080337 11 161 0.0 0.0 0.00 0.00 0.00 76 1010.0
20260508075837 11 161 0.0 0.0 0.00 0.00 0.00 77 1009.0
20260508075337 11 154 0.0 1.6 0.00 0.00 0.00 76 1010.0
20260508074837 11 153 0.0 1.6 0.00 0.00 0.00 77 1010.0
20260508074337 11 153 0.0 0.0 0.00 0.00 0.00 77 1009.0
20260508073836 10 152 0.0 0.0 0.00 0.00 0.00 78 1010.0
20260508073337 10 152 0.0 0.0 0.00 0.00 0.00 77 1010.0
20260508072836 10 148 0.0 0.0 0.00 0.00 0.00 79 1009.0
20260508072336 10 148 0.0 0.0 0.00 0.00 0.00 79 1009.0
20260508071837 10 148 0.0 0.0 0.00 0.00 0.00 80 1010.0
20260508071337 10 148 0.0 0.0 0.00 0.00 0.00 79 1009.0
20260508070837 10 148 0.0 0.0 0.00 0.00 0.00 79 1010.0
20260508070337 10 148 0.0 0.0 0.00 0.00 0.00 80 1009.0
20260508065837 10 148 0.0 0.0 0.00 0.00 0.00 80 1009.0
20260508065337 10 148 0.0 0.0 0.00 0.00 0.00 81 1009.0
20260508064836 9 148 0.0 0.0 0.00 0.00 0.00 81 1009.0
20260508064336 9 148 0.0 0.0 0.00 0.00 0.00 81 1009.0
20260508063837 9 148 0.0 0.0 0.00 0.00 0.00 81 1009.0
20260508063337 9 148 0.0 1.6 0.00 0.00 0.00 81 1009.0
20260508062836 9 148 0.0 0.0 0.00 0.00 0.00 82 1009.0
20260508062336 9 148 0.0 0.0 0.00 0.00 0.00 82 1009.0
20260508061837 9 148 0.0 0.0 0.00 0.00 0.00 82 1009.0
20260508061336 9 148 0.0 0.0 0.00 0.00 0.00 82 1009.0
20260508060432 9 153 0.0 1.6 0.00 0.00 0.00 82 1009.0
20260508055836 9 148 0.0 0.0 0.00 0.00 0.00 83 1009.0
20260508055337 8 147 0.0 0.0 0.00 0.00 0.00 83 1009.0
20260508054838 8 147 0.0 0.0 0.00 0.00 0.00 83 1009.0
20260508054336 8 148 0.0 0.0 0.00 0.00 0.00 83 1009.0
20260508053836 8 147 0.0 0.0 0.00 0.00 0.00 84 1009.0
20260508053336 8 147 0.0 0.0 0.00 0.00 0.00 84 1008.0
20260508052836 8 147 0.0 0.0 0.00 0.00 0.00 84 1008.0
20260508052337 8 147 0.0 0.0 0.00 0.00 0.00 83 1009.0
20260508051836 8 147 0.0 0.0 0.00 0.00 0.00 83 1008.0
20260508051337 8 147 0.0 0.0 0.00 0.00 0.00 83 1009.0
20260508050836 8 147 0.0 0.0 0.00 0.00 0.00 83 1008.0
20260508050336 8 142 0.0 1.6 0.00 0.00 0.00 84 1008.0
20260508045836 8 141 0.0 0.0 0.00 0.00 0.00 84 1008.0
20260508045336 8 142 0.0 0.0 0.00 0.00 0.00 85 1008.0
20260508044836 8 142 0.0 0.0 0.00 0.00 0.00 85 1008.0
20260508044337 8 141 0.0 0.0 0.00 0.00 0.00 85 1008.0
20260508043837 8 142 0.0 0.0 0.00 0.00 0.00 85 1008.0
20260508043336 8 142 0.0 0.0 0.00 0.00 0.00 85 1008.0
20260508042836 8 142 0.0 1.6 0.00 0.00 0.00 85 1008.0
20260508042336 8 142 0.0 0.0 0.00 0.00 0.00 85 1008.0
20260508041836 8 141 0.0 0.0 0.00 0.00 0.00 85 1008.0
20260508041337 8 142 0.0 0.0 0.00 0.00 0.00 85 1008.0
20260508040837 8 142 0.0 0.0 0.00 0.00 0.00 85 1008.0
20260508040337 8 141 0.0 0.0 0.00 0.00 0.00 84 1008.0
20260508035836 8 142 0.0 0.0 0.00 0.00 0.00 84 1008.0
20260508035337 8 141 0.0 0.0 0.00 0.00 0.00 84 1008.0
20260508034836 8 141 0.0 0.0 0.00 0.00 0.00 84 1008.0
20260508034336 8 142 0.0 0.0 0.00 0.00 0.00 84 1008.0
20260508033837 8 141 0.0 0.0 0.00 0.00 0.00 84 1008.0
20260508033337 8 141 0.0 0.0 0.00 0.00 0.00 84 1008.0
20260508032836 8 142 0.0 0.0 0.00 0.00 0.00 84 1008.0
20260508032336 8 141 0.0 0.0 0.00 0.00 0.00 84 1008.0
20260508031837 8 141 0.0 0.0 0.00 0.00 0.00 83 1008.0
20260508031336 8 141 0.0 0.0 0.00 0.00 0.00 83 1008.0
20260508030836 8 141 0.0 0.0 0.00 0.00 0.00 83 1008.0
20260508030336 8 139 0.0 0.0 0.00 0.00 0.00 83 1008.0
20260508025837 8 154 0.0 0.0 0.00 0.00 0.00 84 1008.0
20260508025336 8 131 0.0 0.0 0.00 0.00 0.00 84 1008.0
20260508024836 8 131 0.0 0.0 0.00 0.00 0.00 84 1008.0
20260508024336 8 131 0.0 0.0 0.00 0.00 0.00 84 1008.0
20260508023836 8 131 0.0 0.0 0.00 0.00 0.00 84 1008.0
20260508023336 8 131 0.0 0.0 0.00 0.00 0.00 84 1008.0
20260508022837 8 131 0.0 0.0 0.00 0.00 0.00 83 1008.0
20260508022337 8 131 0.0 0.0 0.00 0.00 0.00 83 1008.0
20260508021837 8 131 0.0 0.0 0.00 0.00 0.00 83 1008.0
20260508021336 8 131 0.0 0.0 0.00 0.00 0.00 83 1008.0
20260508020836 8 131 0.0 1.6 0.00 0.00 0.00 83 1008.0
20260508020336 8 130 0.0 1.6 0.00 0.00 0.00 83 1008.0
20260508015836 8 130 0.0 0.0 0.00 0.00 0.00 83 1008.0
20260508015336 8 130 0.0 0.0 0.00 0.00 0.00 83 1008.0
20260508014836 8 130 0.0 0.0 0.00 0.00 0.00 82 1008.0
20260508014336 8 130 0.0 0.0 0.00 0.00 0.00 82 1008.0
20260508013836 8 130 0.0 0.0 0.00 0.00 0.00 82 1008.0
20260508013338 8 130 0.0 0.0 0.00 0.00 0.00 81 1008.0
20260508012837 8 130 0.0 0.0 0.00 0.00 0.00 81 1008.0
20260508012337 8 130 0.0 0.0 0.00 0.00 0.00 81 1008.0
20260508011836 8 130 0.0 0.0 0.00 0.00 0.00 81 1008.0
20260508011336 8 130 0.0 0.0 0.00 0.00 0.00 81 1008.0
20260508010836 8 130 0.0 0.0 0.00 0.00 0.00 82 1008.0
20260508010336 8 130 0.0 0.0 0.00 0.00 0.00 82 1008.0
20260508005836 8 130 0.0 0.0 0.00 0.00 0.00 82 1008.0
20260508005336 8 130 0.0 0.0 0.00 0.00 0.00 83 1008.0
20260508004837 9 130 0.0 0.0 0.00 0.00 0.00 83 1008.0
20260508004337 9 130 0.0 0.0 0.00 0.00 0.00 82 1008.0
20260508003836 9 130 0.0 0.0 0.00 0.00 0.00 81 1008.0
20260508003336 9 130 0.0 0.0 0.00 0.00 0.00 81 1008.0
20260508002836 9 129 0.0 0.0 0.00 0.00 0.00 81 1008.0
20260508002338 9 130 0.0 0.0 0.00 0.00 0.00 80 1008.0
20260508001836 9 130 0.0 0.0 0.00 0.00 0.00 80 1008.0
20260508001337 10 129 0.0 0.0 0.00 0.00 0.00 79 1008.0
20260508000837 10 130 0.0 0.0 0.00 0.00 0.00 78 1008.0
20260508000337 10 129 0.0 0.0 0.00 0.00 0.00 78 1008.0
20260507235837 10 130 0.0 0.0 0.00 0.00 0.08 77 1008.0
20260507235336 10 129 0.0 0.0 0.00 0.00 0.08 77 1008.0
20260507234837 10 129 0.0 0.0 0.00 0.00 0.08 77 1008.0
20260507234337 10 130 0.0 0.0 0.00 0.00 0.08 77 1008.0
20260507233836 10 130 0.0 0.0 0.00 0.00 0.08 77 1008.0
20260507233336 10 130 1.6 1.6 0.00 0.00 0.08 77 1008.0
20260507232836 10 122 0.0 1.6 0.00 0.00 0.08 77 1008.0
20260507232336 10 124 0.0 0.0 0.00 0.00 0.08 77 1008.0
20260507231836 10 125 0.0 0.0 0.00 0.00 0.08 77 1008.0
20260507231336 10 125 0.0 1.6 0.00 0.00 0.08 77 1008.0
20260507230836 10 124 0.0 0.0 0.00 0.00 0.08 77 1008.0
20260507230337 10 124 0.0 0.0 0.00 0.00 0.08 78 1008.0
20260507225837 10 156 0.0 0.0 0.00 0.00 0.08 78 1008.0
20260507225336 10 156 0.0 1.6 0.00 0.00 0.08 79 1008.0
20260507224836 10 156 1.6 1.6 0.00 0.00 0.08 79 1008.0
20260507224336 9 152 0.0 0.0 0.00 0.00 0.08 80 1008.0
20260507223837 9 152 0.0 0.0 0.00 0.00 0.08 81 1008.0
20260507223336 9 152 0.0 0.0 0.00 0.00 0.08 82 1008.0
20260507222837 9 152 0.0 0.0 0.00 0.00 0.08 84 1008.0
20260507222337 9 152 0.0 0.0 0.00 0.00 0.08 84 1008.0
20260507221836 9 152 0.0 0.0 0.00 0.00 0.08 84 1008.0
20260507221336 9 152 0.0 0.0 0.00 0.00 0.08 85 1008.0
20260507220836 9 152 0.0 0.0 0.00 0.00 0.08 85 1008.0
20260507220337 9 152 0.0 0.0 0.00 0.00 0.08 85 1008.0
20260507215836 9 152 0.0 0.0 0.00 0.00 0.08 85 1008.0
20260507215336 9 152 0.0 0.0 0.00 0.00 0.08 84 1008.0
20260507214837 9 152 0.0 0.0 0.00 0.00 0.08 84 1008.0
20260507214337 9 152 0.0 0.0 0.00 0.00 0.08 83 1008.0
20260507213838 9 152 0.0 0.0 0.00 0.00 0.08 83 1008.0
20260507213336 9 152 0.0 0.0 0.00 0.00 0.08 83 1008.0
20260507212837 9 152 0.0 0.0 0.00 0.00 0.08 83 1008.0
20260507212338 9 152 0.0 0.0 0.00 0.00 0.08 84 1008.0
20260507211837 9 152 0.0 0.0 0.00 0.00 0.08 86 1008.0
20260507211337 9 152 0.0 0.0 0.00 0.00 0.08 87 1008.0
20260507210836 9 152 0.0 0.0 0.00 0.00 0.08 88 1008.0
20260507210337 9 152 0.0 0.0 0.00 0.00 0.08 89 1008.0
20260507205845 10 152 0.0 0.0 0.00 0.00 0.08 90 1008.0
20260507205337 10 152 0.0 0.0 0.00 0.00 0.08 90 1008.0
20260507204837 10 152 0.0 0.0 0.00 0.00 0.08 90 1008.0
20260507204337 10 152 0.0 0.0 0.00 0.00 0.08 90 1008.0
20260507203837 10 152 0.0 0.0 0.00 0.00 0.08 90 1008.0
20260507203337 10 152 0.0 0.0 0.00 0.00 0.08 90 1008.0
20260507202836 10 152 0.0 0.0 0.00 0.00 0.08 89 1008.0
20260507202336 10 152 0.0 0.0 0.00 0.00 0.08 89 1008.0
20260507201836 10 152 0.0 0.0 0.00 0.00 0.08 89 1008.0
20260507201336 10 152 0.0 0.0 0.00 0.00 0.08 88 1008.0
20260507200837 10 152 0.0 0.0 0.00 0.00 0.08 88 1008.0
20260507200336 10 152 0.0 0.0 0.00 0.00 0.08 88 1008.0
20260507195837 10 152 0.0 0.0 0.00 0.00 0.08 88 1007.0
20260507195337 10 152 0.0 0.0 0.00 0.00 0.08 88 1007.0
20260507194836 10 152 0.0 0.0 0.00 0.00 0.08 87 1007.0
20260507194336 10 152 0.0 0.0 0.00 0.00 0.08 87 1007.0
20260507193837 10 152 0.0 0.0 0.00 0.00 0.08 87 1007.0
20260507193338 10 152 0.0 0.0 0.00 0.00 0.08 86 1007.0
20260507192836 10 152 0.0 0.0 0.00 0.00 0.08 86 1007.0
20260507192337 11 152 0.0 0.0 0.00 0.00 0.08 86 1007.0
20260507191837 11 152 0.0 0.0 0.00 0.00 0.08 86 1007.0
20260507191336 11 152 0.0 0.0 0.00 0.00 0.08 86 1007.0
20260507190837 11 152 0.0 0.0 0.00 0.00 0.08 85 1007.0
20260507190337 11 152 0.0 0.0 0.00 0.00 0.08 85 1007.0
20260507185837 11 152 0.0 0.0 0.00 0.00 0.08 85 1007.0
20260507185336 11 152 0.0 0.0 0.00 0.00 0.08 85 1007.0
20260507184838 11 152 0.0 0.0 0.00 0.00 0.08 86 1007.0
20260507184336 11 152 0.0 0.0 0.00 0.00 0.08 86 1007.0
20260507183836 11 152 0.0 0.0 0.00 0.00 0.08 86 1007.0
20260507183337 11 152 0.0 0.0 0.00 0.00 0.08 86 1007.0
20260507182836 11 152 0.0 0.0 0.00 0.00 0.08 86 1007.0
20260507182337 11 152 0.0 0.0 0.00 0.00 0.08 86 1007.0
20260507181837 11 152 0.0 0.0 0.00 0.00 0.08 86 1007.0
20260507181336 11 152 0.0 0.0 0.00 0.00 0.08 86 1007.0
20260507180836 11 152 0.0 0.0 0.00 0.00 0.08 86 1007.0
20260507180337 11 152 0.0 0.0 0.00 0.00 0.08 86 1007.0
20260507175838 11 152 0.0 0.0 0.00 0.00 0.08 86 1007.0
20260507175337 11 152 0.0 0.0 0.00 0.00 0.08 85 1007.0
20260507174838 10 152 0.0 0.0 0.00 0.00 0.08 85 1007.0
20260507174336 10 152 0.0 1.6 0.00 0.00 0.08 85 1007.0
20260507173837 10 153 0.0 0.0 0.00 0.00 0.08 86 1007.0
20260507173336 10 153 0.0 0.0 0.00 0.00 0.08 86 1007.0
20260507172836 10 156 0.0 1.6 0.05 0.00 0.08 85 1007.0
20260507172336 10 108 0.0 0.0 0.13 0.00 0.08 85 1007.0
20260507171837 10 82 0.0 1.6 0.13 0.00 0.05 84 1007.0
20260507171336 11 96 1.6 1.6 0.13 0.00 0.05 84 1007.0
20260507170837 11 102 0.0 0.0 0.13 0.00 0.05 83 1007.0
20260507170339 11 106 0.0 1.6 0.05 0.00 0.03 81 1007.0
20260507165837 11 79 3.2 3.2 0.05 0.00 0.03 78 1007.0
20260507165337 12 138 3.2 4.8 0.05 0.00 0.00 73 1007.0
20260507164837 13 140 0.0 8.0 0.05 0.00 0.00 70 1007.0
20260507164336 13 124 0.0 3.2 0.00 0.00 0.00 62 1007.0
20260507163837 13 167 3.2 3.2 0.00 0.00 0.00 58 1007.0
20260507163337 13 213 4.8 8.0 0.00 0.00 0.00 57 1007.0
20260507162838 14 211 1.6 1.6 0.00 0.00 0.00 57 1007.0
20260507162337 14 145 1.6 3.2 0.00 0.00 0.00 56 1007.0
20260507161837 14 157 1.6 1.6 0.00 0.00 0.00 56 1007.0
20260507161337 14 211 0.0 1.6 0.00 0.00 0.00 56 1007.0
20260507160837 15 135 3.2 4.8 0.00 0.00 0.00 55 1007.0
20260507160337 15 189 0.0 4.8 0.00 0.00 0.00 55 1007.0
20260507155837 15 201 0.0 1.6 0.00 0.00 0.00 55 1007.0
20260507155337 15 227 3.2 8.0 0.00 0.00 0.00 55 1007.0
20260507154837 14 187 1.6 3.2 0.00 0.00 0.00 56 1007.0
20260507154337 14 185 1.6 1.6 0.00 0.00 0.00 55 1007.0
20260507153837 14 193 1.6 4.8 0.00 0.00 0.00 56 1007.0
20260507153337 14 222 1.6 3.2 0.00 0.00 0.00 56 1007.0
20260507152836 13 166 0.0 3.2 0.00 0.00 0.00 57 1007.0
20260507152336 13 210 0.0 1.6 0.00 0.00 0.00 56 1007.0
20260507151837 13 163 1.6 1.6 0.00 0.00 0.00 56 1007.0
20260507151337 13 204 0.0 0.0 0.00 0.00 0.00 57 1007.0
20260507150837 13 162 4.8 8.0 0.00 0.00 0.00 55 1007.0
20260507150337 13 221 3.2 4.8 0.00 0.00 0.00 56 1007.0
20260507145836 13 156 3.2 4.8 0.00 0.00 0.00 56 1007.0
20260507145336 13 221 3.2 9.7 0.00 0.00 0.00 56 1007.0
20260507144837 14 119 1.6 3.2 0.00 0.00 0.00 56 1007.0
20260507144336 14 191 3.2 3.2 0.00 0.00 0.00 57 1007.0
20260507143837 14 190 0.0 3.2 0.00 0.00 0.00 55 1007.0
20260507143337 14 188 0.0 0.0 0.00 0.00 0.00 57 1007.0
20260507142837 14 220 1.6 4.8 0.00 0.00 0.00 56 1007.0
20260507142336 14 105 3.2 4.8 0.00 0.00 0.00 57 1007.0
20260507141837 14 206 1.6 3.2 0.00 0.00 0.00 58 1007.0
20260507141337 13 151 1.6 3.2 0.00 0.00 0.00 59 1007.0
20260507140837 13 218 0.0 1.6 0.00 0.00 0.00 59 1007.0
20260507140337 14 87 3.2 4.8 0.00 0.00 0.00 57 1008.0
20260507135837 14 223 0.0 4.8 0.00 0.00 0.00 58 1008.0
20260507135337 15 164 0.0 3.2 0.00 0.00 0.00 57 1008.0
20260507134837 15 154 0.0 1.6 0.00 0.00 0.00 56 1008.0
20260507134337 15 216 4.8 4.8 0.00 0.00 0.00 56 1007.0
20260507133836 15 206 1.6 8.0 0.00 0.00 0.00 56 1007.0
20260507133339 15 211 1.6 8.0 0.00 0.00 0.00 56 1008.0
20260507132836 15 131 0.0 3.2 0.00 0.00 0.00 57 1008.0
20260507132336 14 139 1.6 1.6 0.00 0.00 0.00 59 1008.0
20260507131837 14 146 1.6 3.2 0.00 0.00 0.00 58 1008.0
20260507131337 14 183 0.0 1.6 0.00 0.00 0.00 60 1008.0
20260507130838 14 202 0.0 1.6 0.00 0.00 0.00 61 1008.0
20260507130336 14 232 0.0 3.2 0.00 0.00 0.00 60 1008.0
20260507125837 14 241 1.6 3.2 0.00 0.00 0.00 59 1008.0
20260507125337 13 175 0.0 0.0 0.00 0.00 0.00 61 1008.0
20260507124836 13 205 1.6 4.8 0.00 0.00 0.00 59 1008.0
20260507124337 13 105 3.2 3.2 0.00 0.00 0.00 60 1008.0
20260507123837 13 169 0.0 3.2 0.00 0.00 0.00 61 1008.0
20260507123336 13 89 0.0 0.0 0.00 0.00 0.00 62 1008.0